,,PA_Meas_PMT16A,,PR_Meas_QMR101_102,,RH_Meas_QMH101,,SR_Meas_QMS101,,TA_Meas_QMH101,,GenWind,,GenWind,
time,status,PA,status,PR,status,RH,status,SR,status,TA,status,DirAvg,status,SpdAvg,
2012-12-07, 06:51:04,VALID,918.445,VALID,0,VALID,95.2546,VALID,55.9768,VALID,19.3937,VALID,137,VALID,0,
2012-12-07, 06:52:04,VALID,917.693,VALID,0,VALID,95.3003,VALID,58.3405,VALID,19.4327,VALID,133,VALID,0,
2012-12-07, 06:53:04,INVALID,922.25,VALID,0,VALID,95.2698,VALID,60.5968,VALID,19.4718,VALID,123,VALID,0,
2012-12-07, 06:54:04,VALID,918.971,VALID,0,VALID,95.2698,VALID,63.068,VALID,19.4913,VALID,143,VALID,0,
2012-12-07, 06:55:04,VALID,919.068,VALID,0,VALID,95.2165,VALID,65.4317,VALID,19.5303,VALID,146,VALID,0,
2012-12-07, 06:56:04,VALID,918.447,VALID,0,VALID,95.0869,VALID,68.2251,VALID,19.5288,VALID,138,VALID,0,
2012-12-07, 06:57:04,INVALID,913.892,VALID,0,VALID,94.9725,VALID,71.126,VALID,19.5483,VALID,135,VALID,0,
2012-12-07, 06:58:04,VALID,919.335,VALID,0,VALID,94.8734,VALID,73.9195,VALID,19.5888,VALID,129,VALID,0,
2012-12-07, 06:59:04,VALID,917.693,VALID,0,VALID,94.8429,VALID,77.0353,VALID,19.5873,VALID,129,VALID,0,
2012-12-07, 07:00:04,VALID,917.956,VALID,0,VALID,94.7743,VALID,80.4734,VALID,19.6068,VALID,129,VALID,0,
2012-12-07, 07:01:04,VALID,919.589,VALID,0,VALID,94.7133,VALID,83.8041,VALID,19.6278,VALID,75,VALID,0,
2012-12-07, 07:02:04,VALID,919.105,VALID,0,VALID,94.6142,VALID,87.4571,VALID,19.6263,VALID,128,VALID,0,
2012-12-07, 07:03:04,VALID,917.805,VALID,0,VALID,94.4846,VALID,90.0357,VALID,19.6653,VALID,138,VALID,0,
2012-12-07, 07:04:04,VALID,917.803,VALID,0,VALID,94.4008,VALID,93.2589,VALID,19.7058,VALID,130,VALID,0,
2012-12-07, 07:05:04,VALID,917.826,VALID,0,VALID,94.2102,VALID,95.7301,VALID,19.7238,VALID,127,VALID,0,
2012-12-07, 07:06:04,VALID,917.708,VALID,0,VALID,94.0653,VALID,98.7384,VALID,19.7238,VALID,148,VALID,0,
2012-12-07, 07:07:04,VALID,917.446,VALID,0,VALID,93.9967,VALID,101.854,VALID,19.8018,VALID,121,VALID,0,
2012-12-07, 07:08:04,VALID,917.665,VALID,0,VALID,93.829,VALID,104.648,VALID,19.8408,VALID,121,VALID,0,
2012-12-07, 07:09:04,VALID,918.024,VALID,0,VALID,93.5469,VALID,108.516,VALID,19.8603,VALID,143,VALID,0,
2012-12-07, 07:10:04,VALID,917.587,VALID,0,VALID,93.5851,VALID,113.243,VALID,19.9383,VALID,118,VALID,0,
2012-12-07, 07:11:04,VALID,918.014,VALID,0,VALID,93.4173,VALID,117.541,VALID,20.0163,VALID,122,VALID,0,
2012-12-07, 07:12:04,VALID,917.662,VALID,0,VALID,93.1505,VALID,121.946,VALID,20.0944,VALID,129,VALID,0,
2012-12-07, 07:13:04,VALID,918.175,VALID,0,VALID,92.5102,VALID,126.136,VALID,20.1529,VALID,125,VALID,0,
2012-12-07, 07:14:04,VALID,917.819,VALID,0,VALID,92.0909,VALID,129.467,VALID,20.2114,VALID,114,VALID,0,
2012-12-07, 07:15:04,VALID,917.747,VALID,0,VALID,91.2294,VALID,132.475,VALID,20.1919,VALID,122,VALID,0,
2012-12-07, 07:16:04,VALID,917.868,VALID,0,VALID,91.7935,VALID,137.632,VALID,20.2504,VALID,112,VALID,0,
2012-12-07, 07:17:04,VALID,917.776,VALID,0,VALID,91.3895,VALID,142.789,VALID,20.3089,VALID,113,VALID,0,
2012-12-07, 07:18:04,VALID,917.77,VALID,0,VALID,91.237,VALID,147.517,VALID,20.3284,VALID,127,VALID,0,
2012-12-07, 07:19:04,VALID,917.538,VALID,0,VALID,91.0465,VALID,153.319,VALID,20.3284,VALID,114,VALID,0,
2012-12-07, 07:20:04,VALID,917.329,VALID,0,VALID,91.0617,VALID,158.476,VALID,20.3869,VALID,115,VALID,0,
2012-12-07, 07:21:04,VALID,917.658,VALID,0,VALID,90.9169,VALID,163.203,VALID,20.447,VALID,111,VALID,0,
2012-12-07, 07:22:04,VALID,917.787,VALID,0,VALID,91.1151,VALID,166.211,VALID,20.4845,VALID,152,VALID,0,
2012-12-07, 07:23:04,VALID,917.876,VALID,0,VALID,90.4137,VALID,170.617,VALID,20.6015,VALID,131,VALID,0,
2012-12-07, 07:24:04,VALID,917.861,VALID,0,VALID,89.7886,VALID,175.666,VALID,20.66,VALID,161,VALID,0,
2012-12-07, 07:25:04,VALID,917.771,VALID,0,VALID,89.2626,VALID,180.501,VALID,20.7185,VALID,160,VALID,0,
2012-12-07, 07:26:04,VALID,917.726,VALID,0,VALID,88.6603,VALID,186.625,VALID,20.7771,VALID,164,VALID,0,
2012-12-07, 07:27:04,VALID,917.514,VALID,0,VALID,88.6527,VALID,191.89,VALID,20.7966,VALID,131,VALID,0,
2012-12-07, 07:28:04,VALID,917.869,VALID,0,VALID,87.9895,VALID,198.551,VALID,20.8356,VALID,158,VALID,0,
2012-12-07, 07:29:04,VALID,917.92,VALID,0,VALID,87.8675,VALID,205.427,VALID,20.8551,VALID,163,VALID,0,
2012-12-07, 07:30:04,VALID,917.948,VALID,0,VALID,87.9209,VALID,211.874,VALID,20.8746,VALID,156,VALID,0,
2012-12-07, 07:31:04,VALID,917.841,VALID,0,VALID,88.0962,VALID,219.502,VALID,20.8925,VALID,146,VALID,0,
2012-12-07, 07:32:04,VALID,917.84,VALID,0,VALID,88.2639,VALID,227.99,VALID,20.9331,VALID,154,VALID,0,
2012-12-07, 07:33:04,VALID,917.866,VALID,0,VALID,87.6922,VALID,236.693,VALID,20.9722,VALID,170,VALID,0,
2012-12-07, 07:34:04,VALID,918.031,VALID,0,VALID,87.776,VALID,244.858,VALID,20.9901,VALID,164,VALID,0,
2012-12-07, 07:35:04,VALID,917.339,VALID,0,VALID,87.9971,VALID,252.057,VALID,21.0112,VALID,171,VALID,0,
2012-12-07, 07:36:04,VALID,917.057,VALID,0,VALID,88.1419,VALID,259.793,VALID,21.0291,VALID,168,VALID,0,
2012-12-07, 07:37:04,VALID,918.014,VALID,0,VALID,87.5778,VALID,267.958,VALID,21.0892,VALID,155,VALID,0,
2012-12-07, 07:38:04,VALID,917.707,VALID,0,VALID,88.1038,VALID,274.727,VALID,21.1266,VALID,162,VALID,0,
2012-12-07, 07:39:04,VALID,917.925,VALID,0,VALID,87.776,VALID,281.173,VALID,21.2843,VALID,165,VALID,0,
2012-12-07, 07:40:04,VALID,917.922,VALID,0,VALID,87.372,VALID,286.331,VALID,21.4209,VALID,144,VALID,0,
2012-12-07, 07:41:04,VALID,918.128,VALID,0,VALID,86.6249,VALID,290.306,VALID,21.499,VALID,176,VALID,0,
2012-12-07, 07:42:04,VALID,917.838,VALID,0,VALID,86.4495,VALID,295.571,VALID,21.6356,VALID,138,VALID,0,
2012-12-07, 07:43:04,VALID,918,VALID,0,VALID,86.7316,VALID,299.009,VALID,21.7315,VALID,138,VALID,0,
2012-12-07, 07:44:04,VALID,917.939,VALID,0,VALID,87.4406,VALID,301.802,VALID,21.8485,VALID,136,VALID,0,
2012-12-07, 07:45:04,VALID,917.982,VALID,0,VALID,85.5271,VALID,305.563,VALID,21.8307,VALID,144,VALID,0,
2012-12-07, 07:46:04,VALID,918.151,VALID,0,VALID,86.5486,VALID,309.86,VALID,21.9087,VALID,169,VALID,0,
2012-12-07, 07:47:04,VALID,918.103,VALID,0,VALID,86.0531,VALID,312.546,VALID,22.0437,VALID,173,VALID,0,
2012-12-07, 07:48:04,VALID,918.132,VALID,0,VALID,85.6796,VALID,318.67,VALID,22.1608,VALID,167,VALID,0,
2012-12-07, 07:49:04,VALID,918.018,VALID,0,VALID,85.0468,VALID,317.059,VALID,22.1608,VALID,162,VALID,0,
2012-12-07, 07:50:04,VALID,916.052,VALID,0,VALID,85.8092,VALID,320.497,VALID,22.2388,VALID,189,VALID,0,
2012-12-07, 07:51:04,INVALID,918.468,VALID,0,VALID,84.7038,VALID,322.861,VALID,22.4535,VALID,176,VALID,0,
2012-12-07, 07:52:04,VALID,918.059,VALID,0,VALID,83.0342,VALID,328.125,VALID,22.5901,VALID,168,VALID,0,
2012-12-07, 07:53:04,VALID,918.243,VALID,0,VALID,82.4015,VALID,332.745,VALID,22.6096,VALID,178,VALID,0,
2012-12-07, 07:54:04,VALID,917.948,VALID,0,VALID,83.1181,VALID,342.522,VALID,22.5901,VALID,168,VALID,0,
2012-12-07, 07:55:04,VALID,918.601,VALID,0,VALID,82.7217,VALID,343.704,VALID,22.7072,VALID,157,VALID,0,
2012-12-07, 07:56:04,VALID,918.384,VALID,0,VALID,83.2325,VALID,338.762,VALID,22.7836,VALID,146,VALID,0,
2012-12-07, 07:57:04,VALID,918.044,VALID,0,VALID,81.845,VALID,343.919,VALID,22.9219,VALID,153,VALID,0,
2012-12-07, 07:58:04,VALID,917.965,VALID,0,VALID,82.5616,VALID,288.05,VALID,22.9397,VALID,139,VALID,0,
2012-12-07, 07:59:04,VALID,918.086,VALID,0,VALID,82.9656,VALID,154.608,VALID,22.9787,VALID,169,VALID,0,
2012-12-07, 08:00:04,VALID,918.232,VALID,0,VALID,81.8679,VALID,142.36,VALID,22.961,VALID,149,VALID,0,
2012-12-07, 08:01:04,VALID,918.383,VALID,0,VALID,82.3939,VALID,166.641,VALID,22.7836,VALID,172,VALID,0,
2012-12-07, 08:02:04,VALID,918.317,VALID,0,VALID,82.7064,VALID,323.505,VALID,22.6665,VALID,171,VALID,0,
2012-12-07, 08:03:04,VALID,918.239,VALID,0,VALID,83.1029,VALID,374.218,VALID,22.686,VALID,146,VALID,0,
2012-12-07, 08:04:04,VALID,917.418,VALID,0,VALID,82.5616,VALID,377.011,VALID,22.7836,VALID,177,VALID,0,
2012-12-07, 08:05:04,VALID,918.958,VALID,0,VALID,82.0508,VALID,379.267,VALID,22.9983,VALID,147,VALID,0,
2012-12-07, 08:06:04,VALID,918.313,VALID,0,VALID,80.7625,VALID,384.424,VALID,23.1367,VALID,146,VALID,0,
2012-12-07, 08:07:04,VALID,918.355,VALID,0,VALID,79.84,VALID,384.21,VALID,23.2538,VALID,153,VALID,0,
2012-12-07, 08:08:04,VALID,916.866,VALID,0,VALID,80.732,VALID,387.433,VALID,23.3709,VALID,162,VALID,0,
2012-12-07, 08:09:04,VALID,918.355,VALID,0,VALID,79.8248,VALID,387.648,VALID,23.488,VALID,146,VALID,0,
2012-12-07, 08:10:04,VALID,918.216,VALID,0,VALID,78.3382,VALID,391.086,VALID,23.7028,VALID,175,VALID,0,
2012-12-07, 08:11:04,VALID,918.885,VALID,0,VALID,78.1629,VALID,393.772,VALID,23.7223,VALID,151,VALID,0,
2012-12-07, 08:12:04,VALID,918.017,VALID,0,VALID,77.5683,VALID,396.673,VALID,23.74,VALID,156,VALID,0,
2012-12-07, 08:13:04,VALID,918.217,VALID,0,VALID,78.8337,VALID,403.227,VALID,23.7223,VALID,155,VALID,0,
2012-12-07, 08:14:04,VALID,918.833,VALID,0,VALID,79.253,VALID,410.748,VALID,23.8572,VALID,172,VALID,0,
2012-12-07, 08:15:04,VALID,918.175,VALID,0,VALID,75.8149,VALID,417.839,VALID,24.0134,VALID,129,VALID,0,
2012-12-07, 08:16:04,VALID,918.179,VALID,0,VALID,76.5086,VALID,424.178,VALID,23.9743,VALID,163,VALID,0,
2012-12-07, 08:17:04,VALID,918.478,VALID,0,VALID,77.6826,VALID,431.699,VALID,23.9158,VALID,170,VALID,0,
2012-12-07, 08:18:04,VALID,918.698,VALID,0,VALID,78.1476,VALID,380.342,VALID,23.9353,VALID,163,VALID,0,
2012-12-07, 08:19:04,VALID,918.385,VALID,0,VALID,78.4754,VALID,285.041,VALID,24.0524,VALID,146,VALID,0,
2012-12-07, 08:20:04,VALID,919.455,VALID,0,VALID,76.7373,VALID,412.896,VALID,24.0738,VALID,170,VALID,0,
2012-12-07, 08:21:04,VALID,918.473,VALID,0,VALID,77.431,VALID,231.965,VALID,24.111,VALID,162,VALID,0,
2012-12-07, 08:22:04,VALID,918.689,VALID,0,VALID,77.3624,VALID,445.773,VALID,24.2105,VALID,162,VALID,0,
2012-12-07, 08:23:04,VALID,918.253,VALID,0,VALID,76.0893,VALID,445.451,VALID,24.3844,VALID,189,VALID,0,
2012-12-07, 08:24:04,VALID,918.579,VALID,0,VALID,74.6027,VALID,418.054,VALID,24.4429,VALID,166,VALID,0,
2012-12-07, 08:25:04,VALID,918.553,VALID,0,VALID,74.6485,VALID,409.458,VALID,24.5582,VALID,166,VALID,0,
2012-12-07, 08:26:04,VALID,918.377,VALID,0,VALID,72.4834,VALID,348.861,VALID,24.6968,VALID,168,VALID,0,
2012-12-07, 08:27:04,VALID,918.279,VALID,0,VALID,73.8404,VALID,396.028,VALID,24.5796,VALID,162,VALID,0,
2012-12-07, 08:28:04,VALID,919.584,VALID,0,VALID,74.7781,VALID,380.342,VALID,24.4606,VALID,162,VALID,0,
2012-12-07, 08:29:04,VALID,918.533,VALID,0,VALID,73.9853,VALID,448.997,VALID,24.482,VALID,178,VALID,0,
2012-12-07, 08:30:04,VALID,918.684,VALID,0,VALID,75.8835,VALID,454.691,VALID,24.5973,VALID,139,VALID,0,
2012-12-07, 08:31:04,VALID,918.517,VALID,0,VALID,75.2355,VALID,457.699,VALID,24.6773,VALID,101,VALID,0,
2012-12-07, 08:32:04,VALID,918.638,VALID,0,VALID,72.087,VALID,461.997,VALID,24.7944,VALID,136,VALID,0,
2012-12-07, 08:33:04,VALID,918.394,VALID,0,VALID,74.0386,VALID,465.865,VALID,24.7944,VALID,138,VALID,0,
2012-12-07, 08:34:04,VALID,918.627,VALID,0,VALID,73.6879,VALID,460.815,VALID,24.8902,VALID,165,VALID,0,
2012-12-07, 08:35:04,VALID,917.138,VALID,0,VALID,72.9256,VALID,457.699,VALID,24.9702,VALID,113,VALID,0,
2012-12-07, 08:36:04,VALID,918.506,VALID,0,VALID,72.1709,VALID,483.915,VALID,25.0483,VALID,151,VALID,0,
2012-12-07, 08:37:04,VALID,918.215,VALID,0,VALID,72.1251,VALID,489.717,VALID,25.1636,VALID,137,VALID,0,
2012-12-07, 08:38:04,VALID,918.606,VALID,0,VALID,70.5166,VALID,491.113,VALID,25.3784,VALID,157,VALID,0,
2012-12-07, 08:39:04,VALID,918.625,VALID,0,VALID,69.3273,VALID,494.229,VALID,25.437,VALID,161,VALID,0,
2012-12-07, 08:40:04,VALID,918.684,VALID,0,VALID,70.4785,VALID,499.279,VALID,25.2612,VALID,159,VALID,0,
2012-12-07, 08:41:04,VALID,918.648,VALID,0,VALID,72.27,VALID,503.039,VALID,25.2417,VALID,129,VALID,0,
2012-12-07, 08:42:04,VALID,918.669,VALID,0,VALID,72.0032,VALID,508.304,VALID,25.398,VALID,168,VALID,0,
2012-12-07, 08:43:04,VALID,918.665,VALID,0,VALID,71.6144,VALID,515.18,VALID,25.4761,VALID,130,VALID,0,
2012-12-07, 08:44:04,VALID,918.606,VALID,0,VALID,70.3641,VALID,523.776,VALID,25.6128,VALID,142,VALID,0,
2012-12-07, 08:45:04,VALID,918.595,VALID,0,VALID,70.0592,VALID,529.04,VALID,25.7671,VALID,177,VALID,0,
2012-12-07, 08:46:04,VALID,918.65,VALID,0,VALID,67.6197,VALID,543.222,VALID,25.8843,VALID,181,VALID,0,
2012-12-07, 08:47:04,VALID,918.625,VALID,0,VALID,68.1381,VALID,548.38,VALID,25.7886,VALID,162,VALID,0,
2012-12-07, 08:48:04,VALID,918.695,VALID,0,VALID,69.6247,VALID,551.71,VALID,25.6909,VALID,162,VALID,0,
2012-12-07, 08:49:04,VALID,918.542,VALID,0,VALID,67.3834,VALID,545.264,VALID,25.7691,VALID,166,VALID,0,
2012-12-07, 08:50:04,VALID,918.556,VALID,0,VALID,68.3592,VALID,497.882,VALID,25.8863,VALID,163,VALID,0,
2012-12-07, 08:51:04,VALID,918.716,VALID,0,VALID,68.0466,VALID,491.866,VALID,25.9058,VALID,164,VALID,0,
2012-12-07, 08:52:04,VALID,918.629,VALID,0,VALID,68.0161,VALID,488.857,VALID,25.8277,VALID,163,VALID,0,
2012-12-07, 08:53:04,VALID,918.57,VALID,0,VALID,67.7722,VALID,458.451,VALID,25.7691,VALID,163,VALID,0,
2012-12-07, 08:54:04,VALID,918.527,VALID,0,VALID,69.1368,VALID,410.64,VALID,25.8648,VALID,167,VALID,0,
2012-12-07, 08:55:04,VALID,918.715,VALID,0,VALID,70.0287,VALID,358.853,VALID,25.8277,VALID,121,VALID,0,
2012-12-07, 08:56:04,VALID,919.373,VALID,0,VALID,69.03,VALID,305.025,VALID,25.6714,VALID,114,VALID,0,
2012-12-07, 08:57:04,VALID,918.782,VALID,0,VALID,68.1152,VALID,260.545,VALID,25.8081,VALID,171,VALID,0,
2012-12-07, 08:58:04,VALID,918.599,VALID,0,VALID,66.9107,VALID,220.469,VALID,25.7691,VALID,152,VALID,0,
2012-12-07, 08:59:04,VALID,919.027,VALID,0,VALID,67.8179,VALID,190.386,VALID,25.7085,VALID,148,VALID,0,
2012-12-07, 09:00:04,VALID,918.675,VALID,0,VALID,71.2866,VALID,170.831,VALID,25.6499,VALID,117,VALID,0,
2012-12-07, 09:01:04,VALID,918.731,VALID,0,VALID,68.2524,VALID,159.765,VALID,25.6304,VALID,156,VALID,0,
2012-12-07, 09:02:04,VALID,918.71,VALID,0,VALID,67.2233,VALID,150.525,VALID,25.689,VALID,212,VALID,0,
2012-12-07, 09:03:04,VALID,918.684,VALID,0,VALID,67.4977,VALID,143.971,VALID,25.9253,VALID,205,VALID,0,
2012-12-07, 09:04:04,VALID,918.705,VALID,0,VALID,67.4596,VALID,141.178,VALID,26.1793,VALID,186,VALID,0,
2012-12-07, 09:05:04,VALID,918.546,VALID,0,VALID,69.556,VALID,139.351,VALID,26.316,VALID,163,VALID,0,
2012-12-07, 09:06:04,VALID,918.733,VALID,0,VALID,65.4089,VALID,139.351,VALID,26.4137,VALID,187,VALID,0,
2012-12-07, 09:07:04,VALID,918.736,VALID,0,VALID,64.3874,VALID,141.5,VALID,26.6091,VALID,191,VALID,0,
2012-12-07, 09:08:04,VALID,918.659,VALID,0,VALID,64.9972,VALID,142.252,VALID,26.7088,VALID,186,VALID,0,
2012-12-07, 09:09:04,VALID,918.743,VALID,0,VALID,66.0416,VALID,141.607,VALID,26.8826,VALID,182,VALID,0,
2012-12-07, 09:10:04,VALID,918.656,VALID,0,VALID,65.5385,VALID,147.839,VALID,26.7263,VALID,164,VALID,0,
2012-12-07, 09:11:04,VALID,918.767,VALID,0,VALID,64.456,VALID,143.971,VALID,26.316,VALID,122,VALID,0,
2012-12-07, 09:12:04,VALID,918.838,VALID,0,VALID,66.8497,VALID,140.426,VALID,25.9644,VALID,145,VALID,0,
2012-12-07, 09:13:04,VALID,918.505,VALID,0,VALID,68.0847,VALID,138.814,VALID,26.023,VALID,183,VALID,0,
2012-12-07, 09:14:04,VALID,918.652,VALID,0,VALID,66.278,VALID,141.393,VALID,26.1988,VALID,201,VALID,0,
2012-12-07, 09:15:04,VALID,918.767,VALID,0,VALID,65.0811,VALID,143.112,VALID,26.2554,VALID,195,VALID,0,
2012-12-07, 09:16:04,VALID,918.897,VALID,0,VALID,65.2412,VALID,143.004,VALID,26.4137,VALID,222,VALID,0,
2012-12-07, 09:17:04,VALID,918.503,VALID,0,VALID,65.9121,VALID,142.36,VALID,26.4528,VALID,232,VALID,0,
2012-12-07, 09:18:04,VALID,919.215,VALID,0,VALID,65.5842,VALID,146.227,VALID,26.4528,VALID,232,VALID,0,
2012-12-07, 09:19:04,VALID,918.813,VALID,0,VALID,65.813,VALID,155.575,VALID,26.5895,VALID,184,VALID,0,
2012-12-07, 09:20:04,VALID,918.724,VALID,0,VALID,64.4789,VALID,172.98,VALID,26.7459,VALID,191,VALID,0,
2012-12-07, 09:21:04,VALID,918.731,VALID,0,VALID,67.1242,VALID,185.981,VALID,26.8045,VALID,168,VALID,0,
2012-12-07, 09:22:04,VALID,918.919,VALID,0,VALID,64.517,VALID,224.015,VALID,26.7829,VALID,182,VALID,0,
2012-12-07, 09:23:04,VALID,918.871,VALID,0,VALID,64.3188,VALID,277.413,VALID,26.8826,VALID,164,VALID,0,
2012-12-07, 09:24:04,VALID,918.787,VALID,0,VALID,64.6008,VALID,337.15,VALID,26.8045,VALID,165,VALID,0,
2012-12-07, 09:25:04,VALID,918.912,VALID,0,VALID,67.3224,VALID,391.623,VALID,26.5114,VALID,118,VALID,0,
2012-12-07, 09:26:04,VALID,918.826,VALID,0,VALID,66.9641,VALID,455.98,VALID,26.4332,VALID,100,VALID,0,
2012-12-07, 09:27:04,VALID,918.596,VALID,0,VALID,70.387,VALID,520.23,VALID,26.3356,VALID,136,VALID,0,
2012-12-07, 09:28:04,VALID,918.629,VALID,0,VALID,67.9704,VALID,620.258,VALID,26.4137,VALID,204,VALID,0,
2012-12-07, 09:29:04,VALID,918.702,VALID,0,VALID,66.3542,VALID,640.886,VALID,26.5505,VALID,222,VALID,0,
2012-12-07, 09:30:04,VALID,918.65,VALID,0,VALID,65.2869,VALID,648.3,VALID,26.5485,VALID,248,VALID,0,
2012-12-07, 09:31:04,VALID,918.599,VALID,0,VALID,67.0098,VALID,546.553,VALID,26.4332,VALID,234,VALID,0,
2012-12-07, 09:32:04,VALID,918.697,VALID,0,VALID,66.0264,VALID,553,VALID,26.5875,VALID,227,VALID,0,
2012-12-07, 09:33:04,VALID,918.591,VALID,0,VALID,67.0098,VALID,576.422,VALID,26.7654,VALID,197,VALID,0,
2012-12-07, 09:34:04,VALID,918.631,VALID,0,VALID,66.7735,VALID,581.579,VALID,26.861,VALID,176,VALID,0,
2012-12-07, 09:35:04,VALID,918.356,VALID,0,VALID,64.1282,VALID,609.621,VALID,26.8415,VALID,88,VALID,0,
2012-12-07, 09:36:04,VALID,918.683,VALID,0,VALID,63.625,VALID,617.787,VALID,26.6071,VALID,137,VALID,0,
2012-12-07, 09:37:04,VALID,917.869,VALID,0,VALID,64.9363,VALID,598.34,VALID,26.3726,VALID,154,VALID,0,
2012-12-07, 09:38:04,VALID,918.564,VALID,0,VALID,65.3098,VALID,647.44,VALID,26.3531,VALID,231,VALID,0,
2012-12-07, 09:39:04,VALID,918.538,VALID,0,VALID,66.1255,VALID,649.804,VALID,26.3726,VALID,251,VALID,0,
2012-12-07, 09:40:04,VALID,918.394,VALID,0,VALID,64.9591,VALID,651.738,VALID,26.6071,VALID,245,VALID,0,
2012-12-07, 09:41:04,VALID,918.623,VALID,0,VALID,64.7914,VALID,651.953,VALID,26.8806,VALID,185,VALID,0,
2012-12-07, 09:42:04,VALID,918.571,VALID,0,VALID,62.6721,VALID,644.002,VALID,27.1932,VALID,202,VALID,0,
2012-12-07, 09:43:04,VALID,918.576,VALID,0,VALID,62.2986,VALID,636.911,VALID,27.3691,VALID,205,VALID,0,
2012-12-07, 09:44:04,VALID,918.61,VALID,0,VALID,62.3748,VALID,655.713,VALID,27.3321,VALID,230,VALID,0,
2012-12-07, 09:45:04,VALID,918.633,VALID,0,VALID,65.4851,VALID,673.978,VALID,27.2909,VALID,217,VALID,0,
2012-12-07, 09:46:04,VALID,919.053,VALID,0,VALID,62.6721,VALID,683.433,VALID,27.2518,VALID,173,VALID,0,
2012-12-07, 09:47:04,VALID,918.558,VALID,0,VALID,65.3937,VALID,678.598,VALID,27.2127,VALID,108,VALID,0,
2012-12-07, 09:48:04,VALID,918.6,VALID,0,VALID,64.2197,VALID,685.475,VALID,27.2127,VALID,138,VALID,0,
2012-12-07, 09:49:04,VALID,918.571,VALID,0,VALID,64.8753,VALID,680.317,VALID,27.2323,VALID,154,VALID,0,
2012-12-07, 09:50:04,VALID,918.578,VALID,0,VALID,63.8385,VALID,664.416,VALID,27.33,VALID,123,VALID,0,
2012-12-07, 09:51:04,VALID,918.593,VALID,0,VALID,64.2349,VALID,636.804,VALID,27.4102,VALID,46,VALID,0,
2012-12-07, 09:52:04,VALID,917.907,VALID,0,VALID,65.9349,VALID,660.656,VALID,27.5666,VALID,79,VALID,0,
2012-12-07, 09:53:04,VALID,918.569,VALID,0,VALID,62.1537,VALID,721.79,VALID,27.4493,VALID,115,VALID,0,
2012-12-07, 09:54:04,VALID,918.497,VALID,0,VALID,61.8945,VALID,711.046,VALID,27.0174,VALID,131,VALID,0,
2012-12-07, 09:55:04,VALID,918.547,VALID,0,VALID,63.2286,VALID,686.871,VALID,27.0194,VALID,100,VALID,0,
2012-12-07, 09:56:04,VALID,917.236,VALID,0,VALID,64.4484,VALID,676.987,VALID,27.0194,VALID,94,VALID,0,
2012-12-07, 09:57:04,VALID,918.383,VALID,0,VALID,63.3353,VALID,679.458,VALID,26.9803,VALID,98,VALID,0,
2012-12-07, 09:58:04,VALID,918.477,VALID,0,VALID,62.9465,VALID,688.375,VALID,26.7849,VALID,50,VALID,0,
2012-12-07, 09:59:04,VALID,918.037,VALID,0,VALID,64.9972,VALID,709.434,VALID,26.9217,VALID,194,VALID,0,
2012-12-07, 10:00:04,VALID,918.504,VALID,0,VALID,63.1829,VALID,718.996,VALID,27.078,VALID,170,VALID,0,
2012-12-07, 10:01:04,VALID,918.622,VALID,0,VALID,64.6085,VALID,716.418,VALID,27.115,VALID,155,VALID,0,
2012-12-07, 10:02:04,VALID,918.417,VALID,0,VALID,66.4762,VALID,716.633,VALID,27.2323,VALID,119,VALID,0,
2012-12-07, 10:03:04,VALID,918.484,VALID,0,VALID,64.8219,VALID,706.211,VALID,27.2734,VALID,154,VALID,0,
2012-12-07, 10:04:04,VALID,918.491,VALID,0,VALID,66.5829,VALID,687.731,VALID,27.0976,VALID,123,VALID,0,
2012-12-07, 10:05:04,VALID,918.461,VALID,0,VALID,61.7116,VALID,659.689,VALID,27.0976,VALID,98,VALID,0,
2012-12-07, 10:06:04,VALID,918.338,VALID,0,VALID,63.869,VALID,654.854,VALID,27.0389,VALID,115,VALID,0,
2012-12-07, 10:07:04,VALID,918.398,VALID,0,VALID,63.2667,VALID,676.127,VALID,27.0955,VALID,164,VALID,0,
2012-12-07, 10:08:04,VALID,918.466,VALID,0,VALID,64.9896,VALID,721.252,VALID,27.1367,VALID,135,VALID,0,
2012-12-07, 10:09:04,VALID,918.942,VALID,0,VALID,64.4789,VALID,684.078,VALID,26.9999,VALID,138,VALID,0,
2012-12-07, 10:10:04,VALID,918.087,VALID,0,VALID,63.0457,VALID,721.575,VALID,27.0585,VALID,186,VALID,0.872656,
2012-12-07, 10:11:04,VALID,918.664,VALID,0,VALID,64.8905,VALID,608.009,VALID,26.8806,VALID,151,VALID,1.72266,
2012-12-07, 10:12:04,VALID,918.297,VALID,0,VALID,66.4381,VALID,687.086,VALID,26.7829,VALID,92,VALID,1.15547,
2012-12-07, 10:13:04,VALID,918.912,VALID,0,VALID,66.3237,VALID,692.888,VALID,26.8415,VALID,157,VALID,2.01875,
2012-12-07, 10:14:04,VALID,918.322,VALID,0,VALID,63.5488,VALID,735.65,VALID,26.7829,VALID,88,VALID,2.25312,
2012-12-07, 10:15:04,VALID,917.981,VALID,0,VALID,67.1623,VALID,763.584,VALID,26.6677,VALID,101,VALID,1.39336,
2012-12-07, 10:16:04,VALID,917.989,VALID,0,VALID,66.4076,VALID,638.308,VALID,26.6677,VALID,135,VALID,0,
2012-12-07, 10:17:04,VALID,918.611,VALID,0,VALID,64.9896,VALID,657.647,VALID,26.5505,VALID,111,VALID,0,
2012-12-07, 10:18:04,VALID,918.551,VALID,0,VALID,67.9094,VALID,775.08,VALID,26.5114,VALID,125,VALID,0,
2012-12-07, 10:19:04,VALID,918.387,VALID,0,VALID,63.6708,VALID,754.129,VALID,26.6872,VALID,123,VALID,0,
2012-12-07, 10:20:04,VALID,918.13,VALID,0,VALID,63.0152,VALID,820.635,VALID,26.9803,VALID,212,VALID,0,
2012-12-07, 10:21:04,VALID,918.472,VALID,0,VALID,63.16,VALID,847.603,VALID,27.2714,VALID,169,VALID,0,
2012-12-07, 10:22:04,VALID,918.364,VALID,0,VALID,64.0519,VALID,865.116,VALID,27.1911,VALID,137,VALID,0,
2012-12-07, 10:23:04,VALID,918.219,VALID,0,VALID,65.9349,VALID,731.997,VALID,27.1737,VALID,103,VALID,0,
2012-12-07, 10:24:04,VALID,918.117,VALID,0,VALID,64.4865,VALID,905.514,VALID,27.0935,VALID,89,VALID,0,
2012-12-07, 10:25:04,VALID,918.285,VALID,0,VALID,63.4954,VALID,932.911,VALID,27.0544,VALID,74,VALID,0,
2012-12-07, 10:26:04,VALID,918.075,VALID,0,VALID,64.5475,VALID,744.997,VALID,26.8785,VALID,108,VALID,0,
2012-12-07, 10:27:04,VALID,918.169,VALID,0,VALID,62.8474,VALID,938.928,VALID,26.8806,VALID,75,VALID,0,
2012-12-07, 10:28:04,VALID,918.058,VALID,0,VALID,62.512,VALID,738.013,VALID,27.0544,VALID,183,VALID,0,
2012-12-07, 10:29:04,VALID,917.964,VALID,0,VALID,63.9605,VALID,736.187,VALID,27.3495,VALID,136,VALID,0,
2012-12-07, 10:30:04,VALID,918.082,VALID,0,VALID,62.2376,VALID,679.673,VALID,27.4842,VALID,135,VALID,0,
2012-12-07, 10:31:04,VALID,918.03,VALID,0,VALID,61.1855,VALID,802.048,VALID,27.6406,VALID,115,VALID,0,
2012-12-07, 10:32:04,VALID,917.994,VALID,0,VALID,62.9618,VALID,928.936,VALID,27.6231,VALID,119,VALID,0,
2012-12-07, 10:33:04,VALID,917.92,VALID,0,VALID,63.2057,VALID,739.517,VALID,27.7208,VALID,95,VALID,0,
2012-12-07, 10:34:04,VALID,919.092,VALID,0,VALID,62.8856,VALID,360.25,VALID,27.6036,VALID,105,VALID,0,
2012-12-07, 10:35:04,VALID,918.049,VALID,0,VALID,62.573,VALID,385.069,VALID,27.3886,VALID,77,VALID,0,
2012-12-07, 10:36:04,VALID,918.051,VALID,0,VALID,61.4828,VALID,482.411,VALID,27.0955,VALID,87,VALID,0,
2012-12-07, 10:37:04,VALID,918.203,VALID,0,VALID,61.986,VALID,534.95,VALID,26.9978,VALID,41,VALID,0,